{"data":{"norad_id":66947,"epoch":"2026-09-20T05:30:30.152160Z","epoch_age_seconds":105042,"freshness":"FRESH","line1":"1 66947U 25286Y   26263.22951565  .00014530  00000+0  44017-3 0  9990","line2":"2 66947  53.1572 171.1472 0001204  93.9176 266.1964 15.34410979 45255","mean_motion":15.34410979,"eccentricity":0.0001204,"inclination_deg":53.1572,"raan_deg":171.1472,"arg_perigee_deg":93.9176,"mean_anomaly_deg":266.1964,"bstar":0.00044017,"rev_number":4525,"period_min":93.847086582923,"perigee_km":461.84697526389,"apogee_km":463.49424173602,"semimajor_km":6840.8076085,"source":"CELESTRAK","updated_at":"2026-09-21T09:00:36.060531Z"}}